WD4CLZ Weather Reports


time (UTC)temp
F
wind
direction
speed
knots
gust
knots
rain 1hr
in
rain 24hr
in
rain mn
in
humidity
%
barometer
mb
20200531075329 78 87 0.0 0.0 0.00 0.00 0.00 81 1013.9
20200531074334 78 87 0.0 0.0 0.00 0.00 0.00 81 1013.9
20200531073340 78 87 0.0 0.0 0.00 0.00 0.00 81 1013.9
20200531072346 78 87 0.0 0.0 0.00 0.00 0.00 81 1014.0
20200531071334 78 87 0.0 0.0 0.00 0.00 0.00 81 1014.1
20200531070338 78 87 0.0 0.0 0.00 0.00 0.00 81 1014.3
20200531065342 78 87 0.0 0.0 0.00 0.00 0.00 80 1014.4
20200531064346 78 87 0.0 0.0 0.00 0.00 0.00 81 1014.5
20200531063335 78 87 0.0 0.0 0.00 0.00 0.00 80 1014.6
20200531062343 79 87 0.0 0.0 0.00 0.00 0.00 80 1014.6
20200531061327 79 87 0.0 0.0 0.00 0.00 0.00 80 1014.7
20200531060332 79 87 0.0 0.0 0.00 0.00 0.00 79 1014.8
20200531055339 79 87 0.0 0.0 0.00 0.00 0.00 79 1015.0
20200531054344 80 87 0.0 0.0 0.00 0.00 0.00 78 1014.9
20200531053328 80 87 0.0 0.0 0.00 0.00 0.00 78 1015.1
20200531052335 80 87 0.0 0.0 0.00 0.00 0.00 78 1015.2
20200531051343 80 87 0.0 0.0 0.00 0.00 0.00 77 1015.4
20200531050347 80 87 0.0 0.0 0.00 0.00 0.00 77 1015.5
20200531045331 80 87 0.0 0.0 0.00 0.00 0.00 77 1015.6
20200531044335 80 87 0.0 0.0 0.00 0.00 0.00 77 1015.6
20200531043344 81 87 0.0 0.0 0.00 0.00 0.00 77 1015.6
20200531042329 81 87 0.0 0.0 0.00 0.00 0.00 77 1015.6
20200531041334 81 87 0.0 0.0 0.00 0.00 0.00 76 1015.7
20200531040340 81 87 0.0 0.0 0.00 0.00 0.00 76 1015.8
20200531035329 81 87 0.0 0.0 0.00 0.00 0.00 76 1015.8
20200531034333 81 87 0.0 0.0 0.00 0.00 0.00 76 1015.9
20200531033338 81 87 0.0 0.0 0.00 0.00 0.00 76 1016.1
20200531032343 82 87 0.0 0.0 0.00 0.00 0.00 76 1016.0
20200531031331 82 87 0.0 0.0 0.00 0.00 0.00 75 1016.1
20200531030336 82 87 0.0 0.0 0.00 0.00 0.00 75 1016.0
20200531025341 82 87 0.0 0.0 0.00 0.00 0.00 75 1016.0
20200531024328 82 87 0.0 0.0 0.00 0.00 0.00 74 1015.9
20200531023333 82 87 0.0 0.0 0.00 0.00 0.00 75 1015.8
20200531022338 82 87 0.0 0.0 0.00 0.00 0.00 75 1015.8
20200531021342 82 87 0.0 0.0 0.00 0.00 0.00 76 1015.9
20200531020332 82 87 0.0 0.0 0.00 0.00 0.00 76 1015.7
20200531015336 82 87 0.0 0.0 0.00 0.00 0.00 76 1015.5
20200531014340 82 107 0.0 0.0 0.00 0.00 0.00 76 1015.4
20200531013345 82 114 0.0 0.0 0.00 0.00 0.00 76 1015.1
20200531012333 82 114 0.0 0.0 0.00 0.00 0.00 76 1015.1
20200531011337 82 114 0.0 0.0 0.00 0.00 0.00 75 1015.1
20200531010341 83 118 0.0 0.0 0.00 0.00 0.00 75 1015.0
20200531005345 83 117 0.0 0.0 0.00 0.00 0.00 75 1014.7
20200531004333 83 117 0.0 0.0 0.00 0.00 0.00 75 1014.7
20200531003337 83 113 0.0 0.0 0.00 0.00 0.00 74 1014.7
20200531002342 83 40 0.0 0.0 0.00 0.00 0.00 74 1014.6
20200531001328 83 40 0.0 0.0 0.00 0.00 0.00 74 1014.2
20200531000336 83 76 0.0 0.0 0.00 0.00 0.00 74 1014.0
20200530235339 83 76 0.0 0.0 0.00 0.00 0.00 73 1013.9
20200530234342 84 42 0.0 0.0 0.00 0.00 0.00 71 1013.8
20200530233347 83 41 0.0 0.0 0.00 0.00 0.00 70 1013.8
20200530232336 84 35 0.0 0.0 0.00 0.00 0.00 72 1013.7
20200530231341 84 41 0.0 0.0 0.00 0.00 0.00 73 1013.5
20200530230344 84 113 0.0 0.0 0.00 0.00 0.00 73 1013.4
20200530225329 84 102 0.0 0.0 0.00 0.00 0.00 71 1013.4
20200530224337 84 146 0.0 0.0 0.00 0.00 0.00 68 1013.7
20200530223342 84 36 0.0 0.0 0.00 0.00 0.00 67 1013.8
20200530222346 85 36 0.0 0.0 0.00 0.00 0.00 67 1013.7
20200530221330 86 40 0.0 0.0 0.00 0.00 0.00 67 1013.6
20200530220339 86 51 0.0 4.3 0.00 0.00 0.00 68 1013.7
20200530215344 87 42 0.0 0.0 0.00 0.00 0.00 67 1013.5
20200530214346 87 42 0.0 0.0 0.00 0.00 0.00 66 1013.6
20200530213330 86 42 0.0 0.0 0.00 0.00 0.00 68 1013.5
20200530212339 87 44 0.0 0.0 0.00 0.00 0.00 67 1013.5
20200530211343 86 42 0.0 0.0 0.00 0.00 0.00 66 1013.5
20200530210346 87 43 0.0 0.0 0.00 0.00 0.00 66 1013.4
20200530205345 87 33 0.0 0.9 0.00 0.00 0.00 66 1013.6
20200530204333 88 59 0.0 0.0 0.00 0.00 0.00 65 1013.7
20200530203337 88 74 0.0 1.7 0.00 0.00 0.00 64 1013.8
20200530202341 88 142 0.0 0.9 0.00 0.00 0.00 64 1013.9
20200530201345 88 43 0.0 0.0 0.00 0.00 0.00 62 1014.1
20200530200332 88 49 0.0 0.0 0.00 0.00 0.00 64 1014.2
20200530195336 89 94 0.0 9.6 0.00 0.00 0.00 61 1014.3
20200530194340 89 65 0.0 0.0 0.00 0.00 0.00 61 1014.4
20200530193344 89 84 0.0 0.0 0.00 0.00 0.00 62 1014.4
20200530192333 89 152 0.0 0.0 0.00 0.00 0.00 60 1014.5
20200530191337 89 68 0.0 0.0 0.00 0.00 0.00 62 1014.5
20200530190341 89 22 0.0 0.0 0.00 0.00 0.00 64 1014.6
20200530185345 88 138 0.0 0.9 0.00 0.00 0.00 65 1014.7
20200530184333 89 49 0.0 4.3 0.00 0.00 0.00 65 1014.9
20200530183338 88 44 0.0 0.0 0.00 0.00 0.00 65 1015.0
20200530182342 88 50 0.0 0.0 0.00 0.00 0.00 65 1015.0
20200530181345 88 30 0.0 0.9 0.00 0.00 0.00 62 1015.1
20200530180333 89 121 0.0 0.0 0.00 0.00 0.00 62 1015.1
20200530175337 89 81 0.0 0.0 0.00 0.00 0.00 64 1015.1
20200530174341 88 131 0.0 0.0 0.00 0.00 0.00 63 1015.3
20200530173345 89 171 0.0 0.0 0.00 0.00 0.00 63 1015.3
20200530172332 88 59 0.0 0.0 0.00 0.00 0.00 63 1015.5
20200530171336 88 99 0.0 0.0 0.00 0.00 0.00 65 1015.5
20200530170341 88 118 0.0 0.0 0.00 0.00 0.00 66 1015.5
20200530165344 87 17 0.0 0.0 0.00 0.00 0.00 67 1015.6
20200530164333 87 152 0.0 0.0 0.00 0.00 0.00 68 1015.7
20200530163336 87 35 0.0 0.0 0.00 0.00 0.00 69 1015.7
20200530162341 88 28 0.0 0.0 0.00 0.00 0.00 67 1015.7
20200530161344 87 103 0.0 0.0 0.00 0.00 0.00 68 1015.7
20200530160333 87 86 0.0 0.0 0.00 0.00 0.00 69 1015.8
20200530155337 87 113 0.0 0.0 0.00 0.00 0.00 69 1015.9
20200530154341 87 92 0.0 0.0 0.00 0.00 0.00 70 1015.9
20200530153345 88 19 0.0 0.0 0.00 0.00 0.00 69 1016.0
20200530152332 87 94 0.0 0.0 0.00 0.00 0.00 69 1016.0
20200530151336 87 29 0.0 0.0 0.00 0.00 0.00 69 1016.1
20200530150340 86 130 0.0 0.0 0.00 0.00 0.00 71 1016.1
20200530145345 86 56 0.0 0.0 0.00 0.00 0.00 69 1016.1
20200530144333 86 56 0.0 0.0 0.00 0.00 0.00 70 1016.1
20200530143337 86 69 0.0 0.0 0.00 0.00 0.00 67 1016.1
20200530142341 87 75 0.0 0.0 0.00 0.00 0.00 68 1016.1
20200530141345 86 118 0.0 0.0 0.00 0.00 0.00 70 1016.2
20200530140334 86 132 0.0 0.9 0.00 0.00 0.00 69 1016.2
20200530135337 86 83 0.0 0.0 0.00 0.00 0.00 70 1016.1
20200530134340 86 72 0.0 0.0 0.00 0.00 0.00 70 1016.1
20200530133344 85 104 0.0 0.0 0.00 0.00 0.00 72 1016.1
20200530132332 84 171 0.0 0.0 0.00 0.00 0.00 74 1016.1
20200530131336 84 97 0.0 0.0 0.00 0.00 0.00 73 1016.1
20200530130341 84 128 0.0 0.0 0.00 0.00 0.00 70 1016.1
20200530125344 85 99 0.0 0.0 0.00 0.00 0.00 71 1016.0
20200530124332 84 129 0.0 0.0 0.00 0.00 0.00 72 1016.0
20200530123337 84 101 0.0 0.0 0.00 0.00 0.00 73 1015.9
20200530122340 84 96 0.0 0.0 0.00 0.00 0.00 73 1015.9
20200530121344 83 111 0.0 0.0 0.00 0.00 0.00 74 1016.0
20200530120331 83 55 0.0 0.0 0.00 0.00 0.00 75 1015.8
20200530115335 83 55 0.0 0.0 0.00 0.00 0.00 76 1015.6
20200530114339 82 55 0.0 0.0 0.00 0.00 0.00 77 1015.6
20200530113343 81 55 0.0 0.0 0.00 0.00 0.00 77 1015.6
20200530112330 81 55 0.0 0.0 0.00 0.00 0.00 77 1015.3
20200530111334 81 55 0.0 0.0 0.00 0.00 0.00 78 1015.2
20200530110338 80 55 0.0 0.0 0.00 0.00 0.00 78 1015.4
20200530105342 80 55 0.0 0.0 0.00 0.00 0.00 78 1015.3
20200530104329 80 55 0.0 0.0 0.00 0.00 0.00 78 1015.2
20200530103333 80 55 0.0 0.0 0.00 0.00 0.00 78 1015.2
20200530102337 80 55 0.0 0.0 0.00 0.00 0.00 78 1015.1
20200530101340 80 55 0.0 0.0 0.00 0.00 0.00 78 1014.9
20200530100328 81 55 0.0 0.0 0.00 0.00 0.00 78 1014.8
20200530095333 81 55 0.0 0.0 0.00 0.00 0.00 77 1014.6
20200530094337 81 51 0.0 0.0 0.00 0.00 0.00 78 1014.6
20200530093341 81 51 0.0 0.0 0.00 0.00 0.00 78 1014.5
20200530092330 81 51 0.0 0.0 0.00 0.00 0.00 78 1014.7
20200530091333 81 51 0.0 0.0 0.00 0.00 0.00 78 1014.8
20200530090337 81 51 0.0 0.0 0.00 0.00 0.00 78 1014.8
20200530085340 81 51 0.0 0.0 0.00 0.00 0.00 79 1014.8
20200530084329 81 51 0.0 0.0 0.00 0.00 0.00 79 1015.0
20200530083333 81 51 0.0 0.0 0.00 0.00 0.00 79 1014.9
20200530082337 81 51 0.0 0.0 0.00 0.00 0.00 79 1015.0
20200530081341 81 51 0.0 0.0 0.00 0.00 0.00 79 1015.2
20200530080328 81 51 0.0 0.0 0.00 0.00 0.00 79 1015.3